CW7427 Weather Reports


Display with metric or nautical units.
time (UTC)temp
F
wind
direction
speed
MPH
gust
MPH
rain 1hr
in
rain 24hr
in
rain mn
in
humidity
%
barometer
mb
20260902100835 70 291 0.0 0.0 0.00 0.00 0.00 51 1012.2
20260902100307 70 291 0.0 0.0 0.00 0.00 0.00 51 1012.1
20260902095809 71 291 0.0 0.0 0.00 0.00 0.00 50 1012.1
20260902095308 71 291 0.0 0.0 0.00 0.00 0.00 49 1012.2
20260902094753 71 291 0.0 0.0 0.00 0.00 0.00 49 1012.1
20260902094255 72 290 0.0 0.0 0.00 0.00 0.00 48 1012.1
20260902093720 72 290 0.0 0.0 0.00 0.00 0.00 47 1012.1
20260902093212 72 290 0.0 0.0 0.00 0.00 0.00 46 1012.1
20260902092659 73 290 0.0 0.0 0.00 0.00 0.00 46 1012.1
20260902092201 72 290 0.0 0.0 0.00 0.00 0.00 46 1012.0
20260902091646 72 290 0.0 0.0 0.00 0.00 0.00 47 1012.0
20260902091133 72 291 0.0 0.0 0.00 0.00 0.00 48 1011.9
20260902090904 72 291 0.0 0.0 0.00 0.00 0.00 47 1011.9
20260902090803 72 291 0.0 0.0 0.00 0.00 0.00 47 1011.9
20260902085547 72 291 0.0 0.0 0.00 0.00 0.00 46 1011.9
20260902085027 72 291 0.0 0.0 0.00 0.00 0.00 46 1011.9
20260902084515 73 291 0.0 0.0 0.00 0.00 0.00 46 1011.8
20260902084005 73 291 0.0 0.0 0.00 0.00 0.00 45 1011.8
20260902083725 73 291 0.0 0.0 0.00 0.00 0.00 45 1011.7
20260902082943 73 291 0.0 0.0 0.00 0.00 0.00 46 1011.8
20260902082414 73 291 0.0 0.0 0.00 0.00 0.00 46 1011.6
20260902081907 73 291 0.0 0.0 0.00 0.00 0.00 45 1011.6
20260902081343 74 291 0.0 0.0 0.00 0.00 0.00 44 1011.6
20260902080830 74 291 0.0 0.0 0.00 0.00 0.00 44 1011.6
20260902080319 74 291 0.0 0.0 0.00 0.00 0.00 44 1011.5
20260902080035 74 290 0.0 0.0 0.00 0.00 0.00 43 1011.4
20260902075258 75 290 0.0 0.0 0.00 0.00 0.00 43 1011.4
20260902074749 75 291 0.0 0.0 0.00 0.00 0.00 42 1011.3
20260902074501 75 290 0.0 1.0 0.00 0.00 0.00 42 1011.2
20260902073955 76 290 0.0 4.0 0.00 0.00 0.00 42 1011.2
20260902073223 76 290 0.0 4.0 0.00 0.00 0.00 41 1011.1
20260902072712 77 222 0.0 2.0 0.00 0.00 0.00 40 1011.0
20260902072202 77 215 0.0 3.0 0.00 0.00 0.00 40 1011.0
20260902071656 77 215 0.0 3.0 0.00 0.00 0.00 39 1010.9
20260902071415 77 218 0.0 2.0 0.00 0.00 0.00 39 1010.9
20260902070646 77 215 0.0 1.0 0.00 0.00 0.00 39 1010.9
20260902070139 77 215 0.0 2.0 0.00 0.00 0.00 38 1010.9
20260902065638 78 215 0.0 5.0 0.00 0.00 0.00 38 1010.9
20260902065342 78 238 0.0 4.0 0.00 0.00 0.00 37 1010.8
20260902064613 78 328 0.0 2.0 0.00 0.00 0.00 37 1010.7
20260902064101 79 329 0.0 4.0 0.00 0.00 0.00 37 1010.7
20260902063603 79 329 0.0 4.0 0.00 0.00 0.00 36 1010.7
20260902063330 80 319 0.0 4.0 0.00 0.00 0.00 37 1010.7
20260902062548 80 340 1.0 6.0 0.00 0.00 0.00 36 1010.6
20260902062316 80 234 1.0 6.0 0.00 0.00 0.00 36 1010.7
20260902061548 80 323 1.0 5.0 0.00 0.00 0.00 36 1010.6
20260902061308 80 300 1.0 4.0 0.00 0.00 0.00 36 1010.6
20260902060548 80 271 1.0 5.0 0.00 0.00 0.00 37 1010.5
20260902060030 80 329 1.0 5.0 0.00 0.00 0.00 36 1010.6
20260902055526 80 274 0.0 5.0 0.00 0.00 0.00 36 1010.6
20260902055021 80 320 0.0 5.0 0.00 0.00 0.00 37 1010.5
20260902054522 81 311 0.0 4.0 0.00 0.00 0.00 36 1010.6
20260902054014 81 309 0.0 4.0 0.00 0.00 0.00 36 1010.7
20260902053504 82 302 0.0 3.0 0.00 0.00 0.00 35 1010.6
20260902052956 82 290 1.0 5.0 0.00 0.00 0.00 35 1010.8
20260902052927 82 338 1.0 5.0 0.00 0.00 0.00 34 1010.8
20260902052212 83 131 1.0 7.0 0.00 0.00 0.00 34 1010.7
20260902051444 83 131 1.0 7.0 0.00 0.00 0.00 34 1010.7
20260902051203 83 330 1.0 6.0 0.00 0.00 0.00 35 1010.7
20260902050434 83 266 0.0 4.0 0.00 0.00 0.00 33 1010.7
20260902045926 84 328 0.0 6.0 0.00 0.00 0.00 34 1010.7
20260902045428 83 328 1.0 6.0 0.00 0.00 0.00 36 1010.7
20260902044916 83 311 1.0 5.0 0.00 0.00 0.00 35 1010.6
20260902044412 83 313 1.0 5.0 0.00 0.00 0.00 35 1010.6
20260902043912 83 319 0.0 5.0 0.00 0.00 0.00 35 1010.5
20260902043855 83 330 0.0 3.0 0.00 0.00 0.00 34 1010.6
20260902043119 83 322 1.0 3.0 0.00 0.00 0.00 36 1010.6
20260902042614 83 327 1.0 5.0 0.00 0.00 0.00 34 1010.7
20260902041842 83 336 1.0 10.0 0.00 0.00 0.00 34 1010.7
20260902041601 83 323 1.0 10.0 0.00 0.00 0.00 36 1010.6
20260902040826 83 321 1.0 4.0 0.00 0.00 0.00 34 1010.7
20260902040315 82 318 1.0 6.0 0.00 0.00 0.00 34 1010.7
20260902040030 82 5 1.0 6.0 0.00 0.00 0.00 33 1010.7
20260902035305 82 0 1.0 6.0 0.00 0.00 0.00 34 1010.7
20260902035015 83 15 1.0 5.0 0.00 0.00 0.00 32 1010.8
20260902034244 82 122 1.0 5.0 0.00 0.00 0.00 33 1010.9
20260902033954 82 159 1.0 5.0 0.00 0.00 0.00 33 1010.9
20260902033454 83 259 1.0 5.0 0.00 0.00 0.00 34 1010.9
20260902032722 83 293 1.0 4.0 0.00 0.00 0.00 34 1011.0
20260902032442 83 307 0.0 4.0 0.00 0.00 0.00 31 1011.0
20260902031705 83 324 0.0 4.0 0.00 0.00 0.00 32 1011.2
20260902031155 83 324 1.0 4.0 0.00 0.00 0.00 35 1011.4
20260902030646 82 329 1.0 4.0 0.00 0.00 0.00 40 1011.5
20260902030135 82 290 1.0 5.0 0.00 0.00 0.00 41 1011.5
20260902025626 83 308 1.0 5.0 0.00 0.00 0.00 41 1011.7
20260902025116 82 300 1.0 8.0 0.00 0.00 0.00 40 1011.7
20260902024608 82 54 0.0 8.0 0.00 0.00 0.00 41 1011.9
20260902024104 82 309 1.0 6.0 0.00 0.00 0.00 41 1012.0
20260902023603 82 299 1.0 6.0 0.00 0.00 0.00 41 1012.2
20260902023103 82 287 1.0 4.0 0.00 0.00 0.00 40 1012.2
20260902022600 82 329 0.0 4.0 0.00 0.00 0.00 41 1012.3
20260902022057 82 307 0.0 4.0 0.00 0.00 0.00 42 1012.3
20260902021558 82 294 0.0 4.0 0.00 0.00 0.00 40 1012.3
20260902021056 82 320 1.0 4.0 0.00 0.00 0.00 41 1012.5
20260902020558 82 355 1.0 6.0 0.00 0.00 0.00 43 1012.6
20260902020310 81 40 1.0 6.0 0.00 0.00 0.00 41 1012.5
20260902015529 81 306 1.0 5.0 0.00 0.00 0.00 42 1012.7
20260902015014 81 344 1.0 7.0 0.00 0.00 0.00 40 1012.8
20260902014509 81 307 1.0 7.0 0.00 0.00 0.00 40 1012.9
20260902014009 81 294 0.0 4.0 0.00 0.00 0.00 40 1013.0
20260902013509 81 304 1.0 6.0 0.00 0.00 0.00 43 1013.0
20260902013008 80 292 1.0 6.0 0.00 0.00 0.00 43 1013.1
20260902012509 80 306 1.0 6.0 0.00 0.00 0.00 42 1013.2
20260902012003 80 321 0.0 5.0 0.00 0.00 0.00 42 1013.3
20260902011504 80 313 1.0 7.0 0.00 0.00 0.00 42 1013.4
20260902011004 80 290 2.0 7.0 0.00 0.00 0.00 43 1013.5
20260902010458 79 311 2.0 8.0 0.00 0.00 0.00 44 1013.5
20260902005951 79 355 1.0 8.0 0.00 0.00 0.00 46 1013.7
20260902005445 79 340 1.0 7.0 0.00 0.00 0.00 44 1013.7
20260902004936 79 315 1.0 6.0 0.00 0.00 0.00 43 1013.7
20260902004425 79 287 1.0 6.0 0.00 0.00 0.00 45 1013.9
20260902003920 79 308 1.0 6.0 0.00 0.00 0.00 45 1013.9
20260902003631 78 107 1.0 6.0 0.00 0.00 0.00 47 1014.0
20260902002903 78 229 1.0 6.0 0.00 0.00 0.00 48 1014.1
20260902002357 77 303 1.0 6.0 0.00 0.00 0.00 47 1014.1
20260902001852 78 327 1.0 5.0 0.00 0.00 0.00 47 1014.3
20260902001341 76 319 1.0 7.0 0.00 0.00 0.00 49 1014.4
20260902000831 76 347 1.0 7.0 0.00 0.00 0.00 48 1014.5
20260902000326 76 315 1.0 5.0 0.00 0.00 0.00 49 1014.6
20260901235815 76 296 0.0 5.0 0.00 0.00 0.00 49 1014.7
20260901235307 75 329 1.0 5.0 0.00 0.00 0.00 49 1014.6
20260901235025 75 306 1.0 5.0 0.00 0.00 0.00 51 1014.7
20260901234245 74 323 1.0 8.0 0.00 0.00 0.00 50 1014.6
20260901233735 74 305 1.0 8.0 0.00 0.00 0.00 50 1014.6
20260901233225 74 288 1.0 6.0 0.00 0.00 0.00 51 1014.6
20260901232937 74 151 1.0 4.0 0.00 0.00 0.00 51 1014.6
20260901232209 73 255 0.0 5.0 0.00 0.00 0.00 53 1014.7
20260901231924 71 296 0.0 7.0 0.00 0.00 0.00 55 1014.8
20260901231153 70 297 0.0 7.0 0.00 0.00 0.00 55 1014.8
20260901230920 70 293 0.0 4.0 0.00 0.00 0.00 55 1014.9
20260901230401 69 355 1.0 5.0 0.00 0.00 0.00 56 1014.8
20260901225627 69 288 1.0 7.0 0.00 0.00 0.00 56 1014.9
20260901225121 69 312 1.0 6.0 0.00 0.00 0.00 57 1015.0
20260901224614 69 339 1.0 4.0 0.00 0.00 0.00 57 1015.0
20260901224105 69 335 0.0 5.0 0.00 0.00 0.00 56 1015.0
20260901223557 69 274 0.0 7.0 0.00 0.00 0.00 57 1015.0
20260901223059 69 310 0.0 7.0 0.00 0.00 0.00 56 1015.0
20260901222544 69 303 0.0 5.0 0.00 0.00 0.00 56 1015.1
20260901222032 69 306 0.0 5.0 0.00 0.00 0.00 56 1015.1
20260901221524 69 332 0.0 4.0 0.00 0.00 0.00 56 1015.0
20260901221013 69 331 0.0 5.0 0.00 0.00 0.00 57 1014.9
20260901220502 68 302 0.0 5.0 0.00 0.00 0.00 57 1015.0
20260901215953 68 289 0.0 5.0 0.00 0.00 0.00 58 1015.0
20260901215444 67 289 0.0 5.0 0.00 0.00 0.00 57 1015.1
20260901214932 67 287 0.0 0.0 0.00 0.00 0.00 58 1015.0
20260901214423 67 286 0.0 5.0 0.00 0.00 0.00 58 1015.0
20260901213917 67 286 0.0 5.0 0.00 0.00 0.00 57 1014.9
20260901213411 67 325 0.0 5.0 0.00 0.00 0.00 58 1014.9
20260901212905 67 326 0.0 5.0 0.00 0.00 0.00 57 1014.9
20260901212357 67 287 0.0 1.0 0.00 0.00 0.00 58 1014.9
20260901212114 67 286 0.0 1.0 0.00 0.00 0.00 58 1014.9
20260901211348 67 286 0.0 3.0 0.00 0.00 0.00 57 1015.0
20260901210831 67 286 0.0 5.0 0.00 0.00 0.00 58 1015.1
20260901210325 66 288 0.0 5.0 0.00 0.00 0.00 58 1015.1
20260901210050 66 280 0.0 3.0 0.00 0.00 0.00 58 1015.1
20260901205308 66 287 0.0 0.0 0.00 0.00 0.00 58 1014.9
20260901205243 66 287 0.0 0.0 0.00 0.00 0.00 58 1014.9
20260901204257 66 287 0.0 0.0 0.00 0.00 0.00 57 1014.9
20260901203751 66 287 0.0 1.0 0.00 0.00 0.00 58 1014.8
20260901203242 66 287 0.0 1.0 0.00 0.00 0.00 57 1015.1
20260901202731 66 287 0.0 1.0 0.00 0.00 0.00 57 1015.1
20260901202233 66 287 0.0 1.0 0.00 0.00 0.00 57 1015.2
20260901201704 66 277 0.0 0.0 0.00 0.00 0.00 57 1015.3
20260901201204 66 277 0.0 0.0 0.00 0.00 0.00 57 1015.1
20260901200655 66 277 0.0 0.0 0.00 0.00 0.00 57 1015.1
20260901200407 66 277 0.0 2.0 0.00 0.00 0.00 57 1014.9
20260901195623 66 275 0.0 2.0 0.00 0.00 0.00 58 1014.7
20260901195113 66 275 0.0 2.0 0.00 0.00 0.00 58 1014.5
20260901194557 65 284 0.0 1.0 0.00 0.00 0.00 59 1014.3
20260901194045 65 284 0.0 2.0 0.00 0.00 0.00 59 1014.3
20260901193749 65 284 0.0 2.0 0.00 0.00 0.00 59 1014.3
20260901193237 65 314 0.0 0.0 0.00 0.00 0.00 60 1014.3
20260901192500 64 315 0.0 0.0 0.00 0.00 0.00 61 1014.3
20260901191954 64 315 0.0 0.0 0.00 0.00 0.00 61 1014.2
20260901191413 65 315 0.0 0.0 0.00 0.00 0.00 61 1014.1
20260901190912 65 315 0.0 0.0 0.00 0.00 0.00 60 1014.0
20260901190359 65 314 0.0 0.0 0.00 0.00 0.00 60 1014.0
20260901185900 65 315 0.0 0.0 0.00 0.00 0.00 60 1013.9
20260901185328 65 315 0.0 0.0 0.00 0.00 0.00 60 1013.9
20260901184816 65 315 0.0 0.0 0.00 0.00 0.00 60 1013.8
20260901184300 65 314 0.0 0.0 0.00 0.00 0.00 59 1013.9
20260901183758 65 314 0.0 0.0 0.00 0.00 0.00 59 1013.8
20260901183256 65 314 0.0 0.0 0.00 0.00 0.00 59 1013.9
20260901182738 65 314 0.0 1.0 0.00 0.00 0.00 60 1013.8
20260901182228 65 313 0.0 2.0 0.00 0.00 0.00 59 1013.8
20260901181725 65 313 0.0 2.0 0.00 0.00 0.00 59 1013.7
20260901181227 65 312 0.0 1.0 0.00 0.00 0.00 60 1013.7
20260901180726 65 304 0.0 4.0 0.00 0.00 0.00 60 1013.6
20260901180210 65 304 0.0 4.0 0.00 0.00 0.00 60 1013.6
20260901175703 65 300 0.0 2.0 0.00 0.00 0.00 60 1013.5
20260901175157 65 300 0.0 1.0 0.00 0.00 0.00 60 1013.6
20260901175131 65 299 0.0 0.0 0.00 0.00 0.00 60 1013.7
20260901174109 65 299 0.0 3.0 0.00 0.00 0.00 60 1013.8
20260901174045 65 299 0.0 3.0 0.00 0.00 0.00 60 1013.8
20260901173053 65 296 0.0 2.0 0.00 0.00 0.00 60 1013.7
20260901172546 64 295 0.0 0.0 0.00 0.00 0.00 60 1013.8
20260901172046 64 294 0.0 0.0 0.00 0.00 0.00 61 1013.9
20260901171536 64 294 0.0 0.0 0.00 0.00 0.00 60 1013.9
20260901171016 64 294 0.0 0.0 0.00 0.00 0.00 60 1013.9
20260901170506 64 294 0.0 0.0 0.00 0.00 0.00 61 1013.9
20260901170006 64 294 0.0 0.0 0.00 0.00 0.00 60 1014.0
20260901165728 64 293 0.0 0.0 0.00 0.00 0.00 60 1013.9
20260901165004 65 293 0.0 2.0 0.00 0.00 0.00 60 1014.0
20260901164506 65 293 0.0 3.0 0.00 0.00 0.00 60 1014.1
20260901164004 65 293 0.0 3.0 0.00 0.00 0.00 60 1014.2
20260901163505 65 290 0.0 3.0 0.00 0.00 0.00 60 1014.3
20260901162955 65 289 0.0 3.0 0.00 0.00 0.00 60 1014.4
20260901162418 65 287 0.0 0.0 0.00 0.00 0.00 60 1014.3
20260901161912 65 287 0.0 1.0 0.00 0.00 0.00 59 1014.5
20260901161401 65 287 0.0 5.0 0.00 0.00 0.00 59 1014.5
20260901160900 65 287 0.0 5.0 0.00 0.00 0.00 59 1014.5
20260901160354 65 296 0.0 2.0 0.00 0.00 0.00 59 1014.4
20260901160104 65 293 0.0 0.0 0.00 0.00 0.00 59 1014.4
20260901155310 65 293 0.0 1.0 0.00 0.00 0.00 59 1014.5
20260901154801 65 292 0.0 1.0 0.00 0.00 0.00 59 1014.5
20260901154300 65 292 0.0 2.0 0.00 0.00 0.00 59 1014.4
20260901153758 65 293 0.0 4.0 0.00 0.00 0.00 59 1014.5
20260901153254 65 290 0.0 4.0 0.00 0.00 0.00 59 1014.6
20260901152754 65 290 0.0 4.0 0.00 0.00 0.00 59 1014.7
20260901152238 65 286 0.0 2.0 0.00 0.00 0.00 59 1014.8
20260901151707 65 286 0.0 2.0 0.00 0.00 0.00 59 1014.9
20260901151438 65 285 0.0 0.0 0.00 0.00 0.00 59 1015.1
20260901150655 65 285 0.0 0.0 0.00 0.00 0.00 59 1015.2
20260901150638 65 285 0.0 1.0 0.00 0.00 0.00 59 1015.2
20260901145650 65 285 0.0 1.0 0.00 0.00 0.00 59 1015.2
20260901145124 65 280 0.0 4.0 0.00 0.00 0.00 59 1015.3
20260901144616 65 279 0.0 4.0 0.00 0.00 0.00 59 1015.4
20260901144123 65 278 0.0 0.0 0.00 0.00 0.00 59 1015.4
20260901143601 66 278 0.0 0.0 0.00 0.00 0.00 58 1015.4
20260901143028 66 279 0.0 4.0 0.00 0.00 0.00 58 1015.5
20260901142514 66 279 0.0 4.0 0.00 0.00 0.00 58 1015.6
20260901142008 66 273 0.0 2.0 0.00 0.00 0.00 57 1015.5
20260901141506 66 273 0.0 3.0 0.00 0.00 0.00 57 1015.6
20260901141227 66 276 0.0 4.0 0.00 0.00 0.00 57 1015.5
20260901140450 66 281 1.0 5.0 0.00 0.00 0.00 57 1015.5
20260901135950 66 325 1.0 5.0 0.00 0.00 0.00 57 1015.6
20260901135447 66 248 1.0 8.0 0.00 0.00 0.00 57 1015.7
20260901134933 66 344 1.0 8.0 0.00 0.00 0.00 57 1015.8
20260901134646 66 302 1.0 5.0 0.00 0.00 0.00 57 1015.8
20260901133906 66 306 1.0 5.0 0.00 0.00 0.00 57 1015.8
20260901133344 66 311 0.0 4.0 0.00 0.00 0.00 57 1015.8
20260901132836 66 313 0.0 2.0 0.00 0.00 0.00 57 1015.8
20260901132323 66 313 0.0 2.0 0.00 0.00 0.00 57 1015.8
20260901132251 66 313 0.0 0.0 0.00 0.00 0.00 57 1015.8
20260901131258 66 313 0.0 1.0 0.00 0.00 0.00 57 1015.9
20260901130751 66 313 0.0 2.0 0.00 0.00 0.00 56 1016.0
20260901130246 66 313 0.0 5.0 0.00 0.00 0.00 56 1016.0
20260901125745 66 321 0.0 5.0 0.00 0.00 0.00 56 1016.1
20260901125231 66 299 0.0 2.0 0.00 0.00 0.00 56 1016.0
20260901124720 66 294 0.0 2.0 0.00 0.00 0.00 56 1016.1
20260901124213 65 290 0.0 4.0 0.00 0.00 0.00 56 1016.1
20260901123704 65 290 0.0 4.0 0.00 0.00 0.00 57 1016.2
20260901123203 64 121 0.0 0.0 0.00 0.00 0.00 58 1016.2
20260901122701 64 121 0.0 0.0 0.00 0.00 0.00 58 1016.2
20260901122151 64 121 0.0 0.0 0.00 0.00 0.00 58 1016.3
20260901121604 64 121 0.0 0.0 0.00 0.00 0.00 58 1016.3
20260901121036 65 121 0.0 0.0 0.00 0.00 0.00 57 1016.4
20260901120509 65 121 0.0 0.0 0.00 0.00 0.00 57 1016.4
20260901120009 65 121 0.0 0.0 0.00 0.00 0.00 57 1016.5
20260901115509 65 121 0.0 0.0 0.00 0.00 0.00 56 1016.7
20260901114959 65 121 0.0 0.0 0.00 0.00 0.00 55 1016.7
20260901114709 65 121 0.0 0.0 0.00 0.00 0.00 55 1016.9
20260901113950 65 121 0.0 0.0 0.00 0.00 0.00 55 1017.1
20260901113446 65 121 0.0 0.0 0.00 0.00 0.00 54 1017.3
20260901112927 65 121 0.0 0.0 0.00 0.00 0.00 54 1017.3
20260901112418 65 121 0.0 0.0 0.00 0.00 0.00 54 1017.4
20260901111911 65 121 0.0 2.0 0.00 0.00 0.00 53 1017.6
20260901111406 65 121 0.0 2.0 0.00 0.00 0.00 53 1017.6
20260901110852 65 121 0.0 0.0 0.00 0.00 0.00 54 1017.8
20260901110340 65 121 0.0 0.0 0.00 0.00 0.00 53 1017.8
20260901105811 65 121 0.0 0.0 0.00 0.00 0.00 54 1017.9
20260901105528 65 121 0.0 0.0 0.00 0.00 0.00 54 1017.9
20260901104753 65 121 0.0 0.0 0.00 0.00 0.00 55 1017.8
20260901104250 64 121 0.0 0.0 0.00 0.00 0.00 56 1017.8
20260901103726 63 121 0.0 0.0 0.00 0.00 0.00 59 1017.8
20260901103223 63 121 0.0 0.0 0.00 0.00 0.00 61 1017.8
20260901102701 63 121 0.0 0.0 0.00 0.00 0.00 61 1017.8
20260901102155 62 121 0.0 0.0 0.00 0.00 0.00 62 1017.8
20260901101655 62 121 0.0 0.0 0.00 0.00 0.00 62 1017.8
20260901101149 62 121 0.0 0.0 0.00 0.00 0.00 62 1017.8